STARLINK-11588, 63319

Orbit data source: Space-Track

STARLINK-11588, 63319 is a payload satellite owned by SpaceX/Seattle (US) in LEO that was launched on Tue, 18 Mar 2025 UTC via an FALCON 9 launch vehicle from the Air Force Eastern Test Range (AFETR). Payload-class satellites include a variety of spacecraft equipped with specific instruments for various scientific and technological missions. These include communications satellites like Starlink; space stations such as the ISS; scientific satellites like the Hubble; Earth observation satellites from companies like Planet Labs, Umbra, and HawkEye 360; GPS; miniature CubeSats for education and research; and military/defense satellites.

Loading next visibility...
Identifier
63319, 2025-057N
Orbit
LEO
Last TLE update
2 days ago
Origin
Manufacturer
SpaceX/Seattle
Mission
Operational spacecraft
Bus & Motor
STARLINK V2M, Unknown motor
Mass
730 kg wet, ~700 kg dry
Launch date (UTC)
2025-03-18 (1 month ago)
Launch vehicle
FALCON 9
Launch site
Air Force Eastern Test Range (AFETR)
Object type
Payload
Rocket body
Debris
Shape & HBR
Unknown
Radar Cross Section
Large (>1 m²)

Expand to show TLE details & history

TLE from 2 days ago
0 STARLINK-11588
1 63319U 25057N   25118.92041254 -.00014731  00000-0 -11122-3 0  9993
2 63319  43.0019   1.7626 0003011 282.0789  77.9741 15.70892587  7547
Epoch: 2025-04-28T22:05Z
Definitive object data (Epoch: 2025-04-28T22:05:23.643Z)
Latitude
-0.00003°
Longitude
173.28654°
Altitude
355.694 km
Speed
7.698 km/s
True Right ascension
00h 07m 03s
True Declination
0° 00' 00"
Sunlit
Object was in daylight at TLE epoch
Visualization TLE readout
Latitude
-39.02004°
Longitude
104.37766°
Altitude
366.049 km
Speed
7.691 km/s
Apparent Right ascension
00h 07m 12s
Apparent Declination
-76° 09' 31"
Sunlit
Object is in full shadow
Visualization observer readout
Local Sidereal Time
17:59:45
Azimuth
162.087° S
Elevation
-38.976°
Doppler factor
1
Orbital elements
Apogee altitude
360.354 km
Perigee altitude
356.298 km
Semi-major axis
6,736.463 km
Eccentricity
0.0003011
Inclination
43.0019°
RAAN
1.7626°
Arg. of periapsis
282.0789°
True anomaly
78.00785°
Mean anomaly
77.9741°
Eccentric anomaly
77.99097°
Mean motion
3.9255 °/min
BSTAR
-0.00011122
Orbital period
91.71 mins
Loading maneuver chart data...
Loading SW <> Apogee altitude chart data...
Loading historical data...
Loading historical data...
Loading historical data...
Loading historical data...
Loading historical data...
Loading historical data...
Loading historical data...

STARLINK-11588 Visibility forecast

Observer location: undefined°, undefined°

Span
Click to sort rows by Start time (UTC) header in descending order
Start Az.
Max El. time (UTC)
Max El. Az.
Max El.
End time (UTC)
End Az.
4 mins2025-04-30 18:32:44.694Z192.499° SSW2025-04-30 18:34:44.694Z141.539° SSE19.607°2025-04-30 18:36:44.694Z97.33° ESE
4 mins2025-04-30 20:08:44.694Z258.686° W2025-04-30 20:10:44.694Z45.5° ENE42.403°2025-04-30 20:12:44.694Z69.577° E
4 mins2025-04-30 23:21:44.694Z290.72° WNW2025-04-30 23:22:44.694Z302.421° NW43.521°2025-04-30 23:25:44.694Z106.941° ESE
|